Weather in Baht

Uzbekistan     40°42′51″N   68°41′32″E
temp.,
°C
wind,
m/s
gust,
m/s
humid.,
%
clouds,
%
prec.,
mm/h
press.,
hPa
HPBL,
m
14 april, wed
wed1423:00+15sse386548 0.0 1019187
02:00+14ese346242 0.0 101758
05:00+13ene226233 0.0 101722
08:00+16nnw114853 0.0 1017146
11:00+22ne02365 0.0 1015790
14:00+25nne33270 0.0 10131633
17:00+26ne12267 0.0 10121607
20:00+20wnw22429 0.1 101222
15 april, thu
thu1523:00+17nnw23531 0.1 101343
02:00+15nw23590 0.0 101347
05:00+13w22570 0.0 101421
08:00+16nw224743 0.0 1015243
11:00+21wnw12300 0.0 1015789
14:00+24wnw342313 0.0 10131520
17:00+23nnw54270 0.0 1014845
20:00+19nne34344 0.0 101444
16 april, fri
fri1623:00+16ne333836 0.0 101430
02:00+15n1145100 0.0 101311
05:00+14nnw0146100 0.0 101410
08:00+18nne0139100 0.0 101598
11:00+23nnw1128100 0.0 1015582
14:00+26nw22225 0.0 10141428
17:00+26nnw332010 0.0 10131696
20:00+21nne2329100 0.0 101421
17 april, sat
sat1723:00+18nne3334100 0.0 101328
02:00+16nne3343100 0.0 101227
05:00+15n334689 0.0 101329
08:00+18nw22387 0.0 1014193
11:00+24nw332662 0.0 1013897
14:00+26nnw44195 0.0 10121723
17:00+25nnw4421100 0.0 10121895
20:00+21nne3337100 0.0 101454
18 april, sun
sun1823:00+20nne1138100 0.0 101511
02:00+18wnw3443100 0.0 101578
05:00+16ene3740100 0.0 1017134
08:00+18wnw214095 0.0 1019192
11:00+23ssw352977 0.0 10181496
14:00+25wnw10122442 0.0 10163609
17:00+25nw572038 0.0 10173318
20:00+19nnw233315 0.0 101844